Weather History for Leeming, United Kingdom

Change the Weather History Date:

Monday, December 3, 2012

  Actual Average (EGNV) Record (EGNV)
Temperature  
Mean Temperature 38 °F -  
Max Temperature 43 °F 44 °F 53 °F (1999)
Min Temperature 32 °F 34 °F 6 °F (2010)
Degree Days  
Heating Degree Days 28    
Moisture  
Dew Point 34 °F    
Average Humidity 89    
Maximum Humidity 100    
Minimum Humidity 71    
Precipitation  
Precipitation 0.08 in 0.07 in - ()
Sea Level Pressure  
Sea Level Pressure 29.58 in    
Wind  
Wind Speed 7 mph ()    
Max Wind Speed 16 mph    
Max Gust Speed -    
Visibility 4.6 miles    
Events Fog , Rain , Snow    
Averages and records for this station are not official NWS values.
T = Trace of Precipitation, MM = Missing Value Source: Averaged Metar Reports

Daily Weather History Graph

Daily Weather History Graph

Search for Another Location

Airport:

Trip Planner

Search our weather history database for the weather conditions in past years. The results will help you decide how hot, cold, wet, or windy it might be!

Date:

Astronomy

Dec. 03, 2012 Rise Set
Actual Time 8:06 AM GMT 3:45 PM GMT
Civil Twilight 7:23 AM GMT 4:28 PM GMT
Nautical Twilight 6:37 AM GMT 5:13 PM GMT
Astronomical Twilight 5:54 AM GMT 5:57 PM GMT
Moon 8:41 PM GMT (12/3) 11:00 AM GMT (12/3)
Length of Visible Light 9h 04m
Length of Day
7h 38m
Waning Gibbous, 80% of the Moon is Illuminated
Dec 3
Waning Gibbous
Dec 6
Last Quarter
Dec 13
New
Dec 20
First Quarter
Dec 28
Full

Hourly Weather History & Observations

Time (GMT) Temp. Windchill Dew Point Humidity Pressure Visibility Wind Dir Wind Speed Gust Speed Precip Events Conditions
12:50 AM 32.0 °F 24.8 °F 30.2 °F 93% 29.80 in - SSE 8.1 mph - N/A Snow Light Snow
1:50 AM 32.0 °F 25.6 °F 32.0 °F 100% 29.74 in 1.1 mi SE 6.9 mph - N/A Snow Light Snow
2:50 AM 33 °F - 33 °F 97% 29.73 in 2 mi SSE 8.1 mph - - Rain Rain
2:50 AM 33.8 °F 27.0 °F 32.0 °F 93% 29.71 in 1.9 mi SSE 8.1 mph - N/A Rain Rain
3:50 AM 33.8 °F 25.8 °F 32.0 °F 93% 29.65 in 1.4 mi SSE 10.4 mph - N/A Rain Rain
4:50 AM 33.8 °F 28.6 °F 33.8 °F 100% 29.65 in 1.3 mi SSE 5.8 mph - N/A   Overcast
5:50 AM 33 °F - 33 °F 100% 29.65 in 1 mi SSE 4.6 mph - - Rain Light Drizzle
5:50 AM 33.8 °F 29.6 °F 33.8 °F 100% 29.62 in 0.6 mi SSE 4.6 mph - N/A   Light Drizzle
6:50 AM 33.8 °F 27.0 °F 33.8 °F 100% 29.62 in 0.2 mi SSE 8.1 mph - N/A Fog Fog
7:50 AM 33.8 °F 29.6 °F 33.8 °F 100% 29.59 in 0.2 mi SSE 4.6 mph - N/A Fog Fog
8:50 AM 33 °F - 33 °F 100% 29.61 in 0 mi SE 9.2 mph - - Fog Partial Fog
8:50 AM 33.8 °F 26.4 °F 33.8 °F 100% 29.59 in 0.2 mi SE 9.2 mph - N/A Fog Fog
9:50 AM 33.8 °F 27.0 °F 33.8 °F 100% 29.59 in 0.4 mi SSE 8.1 mph - N/A Fog Fog
10:50 AM 35.6 °F - 35.6 °F 100% 29.59 in 6.2 mi South 2.3 mph - N/A   Scattered Clouds
11:50 AM 43 °F - 38 °F 78% 29.60 in 25 mi West 16.1 mph - -   Partly Cloudy
11:50 AM 42.8 °F 35.1 °F 39.2 °F 87% 29.59 in 6.2 mi West 16.1 mph - N/A   Partly Cloudy
12:50 PM 44.6 °F 38.1 °F 35.6 °F 71% 29.56 in 6.2 mi West 13.8 mph - N/A   Partly Cloudy
1:50 PM 42.8 °F 35.8 °F 35.6 °F 76% 29.56 in 6.2 mi WSW 13.8 mph - N/A   Partly Cloudy
2:50 PM 41 °F - 36 °F 74% 29.57 in 22 mi NW 6.9 mph - -   Scattered Clouds
2:50 PM 41.0 °F 36.4 °F 35.6 °F 81% 29.56 in 6.2 mi NW 6.9 mph - N/A   Partly Cloudy
3:50 PM 39.2 °F 35.0 °F 33.8 °F 81% 29.53 in 6.2 mi West 5.8 mph - N/A   Partly Cloudy
4:50 PM 37.4 °F 32.1 °F 33.8 °F 87% 29.53 in 6.2 mi WSW 6.9 mph - N/A   Partly Cloudy
5:50 PM 39 °F - 35 °F 81% 29.55 in 22 mi SW 2.3 mph - -   Scattered Clouds
5:50 PM 39.2 °F - 35.6 °F 87% 29.53 in 6.2 mi SW 2.3 mph - N/A   Partly Cloudy
6:50 PM 39.2 °F 34.2 °F 33.8 °F 81% 29.50 in 6.2 mi West 6.9 mph - N/A   Partly Cloudy
7:50 PM 39.2 °F 32.0 °F 35.6 °F 87% 29.50 in 6.2 mi West 11.5 mph - N/A   Scattered Clouds
8:50 PM 40 °F - 35 °F 76% 29.51 in 19 mi West 11.5 mph - -   Scattered Clouds
8:50 PM 39.2 °F 32.0 °F 35.6 °F 87% 29.50 in - West 11.5 mph - N/A   Clear
9:50 PM 39.2 °F 31.6 °F 33.8 °F 81% 29.50 in 6.2 mi WSW 12.7 mph - N/A   Scattered Clouds
10:50 PM 37.4 °F 31.4 °F 33.8 °F 87% 29.50 in 6.2 mi West 8.1 mph - N/A   Mostly Cloudy
11:50 PM 37 °F - 34 °F 83% 29.50 in 15 mi WSW 8.1 mph - -   Scattered Clouds
11:50 PM 37.4 °F 31.4 °F 33.8 °F 87% 29.47 in 6.2 mi WSW 8.1 mph - N/A   Mostly Cloudy